Track STARLINK-1889 now! 10-day predictions STARLINK-1889 is classified as:
1 47172U 20088BC 21025.25001157 -.00887574 00000-0 -44585-1 0 9998 2 47172 53.0368 58.2313 0001455 73.6807 138.6361 15.19392815 10302